When you browse on this site, cookies collect data to enhance your experience and personalize the content and advertising you see.
Visit our Privacy Policy to learn more. By continuing to use the site, you agree to this use of cookies and data.
  • In Portugal
  • List of Countries
  • For 7 days
  • Water Temperature
  • Weather Map
  • Weather Widgets
  • user-avatar
    Login

    Hourly Weather Smolan

    Today, 1 April, Wednesday

    Time Temperature Precipitation Wind Pressure Humidity
    00:00 0°C° 0.7 mm 1 mps 653 mmHg 96%
    01:00 -2°C° 0.7 mm 2 mps 653 mmHg 96%
    02:00 -3°C° 0.7 mm 2 mps 652 mmHg 96%
    03:00 -3°C° 0.3 mm 2 mps 652 mmHg 95%
    04:00 -4°C° 0.3 mm 2 mps 652 mmHg 95%
    05:00 -5°C° 0.3 mm 2 mps 652 mmHg 94%
    06:00 -4°C° 0.1 mm 2 mps 652 mmHg 92%
    07:00 -4°C° 0.1 mm 2 mps 652 mmHg 90%
    08:00 -4°C° 0.1 mm 2 mps 652 mmHg 89%
    09:00 -3°C° 0.1 mm 2 mps 652 mmHg 87%
    10:00 -2°C° 0.1 mm 2 mps 653 mmHg 85%
    11:00 -1°C° 0.1 mm 2 mps 653 mmHg 84%
    12:00 -1°C° 0.1 mm 2 mps 653 mmHg 85%
    13:00 -1°C° 0.1 mm 2 mps 652 mmHg 86%
    14:00 -1°C° 0.1 mm 2 mps 652 mmHg 87%
    15:00 -1°C° 0.2 mm 2 mps 651 mmHg 88%
    16:00 -2°C° 0.2 mm 2 mps 651 mmHg 90%
    17:00 -2°C° 0.2 mm 2 mps 650 mmHg 91%
    18:00 -3°C° 0.5 mm 2 mps 650 mmHg 93%
    19:00 -3°C° 0.5 mm 2 mps 650 mmHg 95%
    20:00 -3°C° 0.5 mm 2 mps 650 mmHg 96%
    21:00 -3°C° 0.7 mm 2 mps 650 mmHg 96%
    22:00 -4°C° 0.7 mm 2 mps 650 mmHg 96%
    23:00 -4°C° 0.7 mm 2 mps 649 mmHg 96%

    Tomorrow, 2 April, Thursday

    Time Temperature Precipitation Wind Pressure Humidity
    00:00 -4°C° 0.6 mm 2 mps 649 mmHg 96%
    01:00 -4°C° 0.6 mm 2 mps 649 mmHg 96%
    02:00 -4°C° 0.6 mm 2 mps 649 mmHg 95%
    03:00 -6°C° 0.7 mm 3 mps 649 mmHg 95%
    04:00 -6°C° 0.7 mm 3 mps 648 mmHg 94%
    05:00 -6°C° 0.7 mm 3 mps 648 mmHg 93%
    06:00 -6°C° 0.3 mm 3 mps 649 mmHg 92%
    07:00 -5°C° 0.3 mm 3 mps 649 mmHg 90%
    08:00 -5°C° 0.3 mm 3 mps 649 mmHg 88%
    09:00 -4°C° 0.1 mm 3 mps 650 mmHg 87%
    10:00 -2°C° 0.1 mm 3 mps 650 mmHg 86%
    11:00 -1°C° 0.1 mm 3 mps 650 mmHg 85%
    12:00 -1°C° 0.1 mm 3 mps 651 mmHg 85%
    13:00 0°C° 0.1 mm 3 mps 651 mmHg 85%
    14:00 0°C° 0.1 mm 3 mps 651 mmHg 86%
    15:00 +1°C° 0.1 mm 2 mps 651 mmHg 85%
    16:00 +1°C° 0.1 mm 2 mps 651 mmHg 85%
    17:00 +1°C° 0.1 mm 2 mps 651 mmHg 85%
    18:00 +1°C° 0 mm 1 mps 650 mmHg 88%
    19:00 -1°C° 0 mm 1 mps 650 mmHg 91%
    20:00 -2°C° 0 mm 1 mps 650 mmHg 94%
    21:00 -2°C° 0 mm 1 mps 650 mmHg 93%
    22:00 -2°C° 0 mm 1 mps 651 mmHg 92%
    23:00 -3°C° 0 mm 1 mps 651 mmHg 91%

    Day after tomorrow, 3 April, Friday

    Time Temperature Precipitation Wind Pressure Humidity
    00:00 -3°C° 0 mm 1 mps 651 mmHg 90%
    01:00 -3°C° 0 mm 1 mps 651 mmHg 89%
    02:00 -3°C° 0 mm 1 mps 650 mmHg 89%
    03:00 -3°C° 0 mm 1 mps 650 mmHg 89%
    04:00 -3°C° 0 mm 1 mps 650 mmHg 90%
    05:00 -3°C° 0 mm 1 mps 650 mmHg 90%
    06:00 -1°C° 0 mm 1 mps 651 mmHg 90%
    07:00 0°C° 0 mm 1 mps 652 mmHg 90%
    08:00 +1°C° 0 mm 1 mps 652 mmHg 90%
    09:00 +3°C° 0 mm 1 mps 653 mmHg 87%
    10:00 +4°C° 0 mm 1 mps 653 mmHg 85%
    11:00 +5°C° 0 mm 1 mps 654 mmHg 82%
    12:00 +5°C° 0 mm 1 mps 654 mmHg 83%
    13:00 +5°C° 0 mm 1 mps 653 mmHg 83%
    14:00 +5°C° 0 mm 2 mps 653 mmHg 84%
    15:00 +5°C° 0 mm 1 mps 653 mmHg 86%
    16:00 +5°C° 0 mm 1 mps 653 mmHg 87%
    17:00 +4°C° 0 mm 1 mps 652 mmHg 89%
    18:00 +4°C° 0 mm 1 mps 652 mmHg 91%
    19:00 +2°C° 0 mm 0 mps 652 mmHg 92%
    20:00 +1°C° 0 mm 0 mps 652 mmHg 94%
    21:00 +1°C° 0 mm 0 mps 653 mmHg 94%
    22:00 +1°C° 0 mm 0 mps 653 mmHg 94%
    23:00 0°C° 0 mm 0 mps 653 mmHg 94%

    4 April, Saturday

    Time Temperature Precipitation Wind Pressure Humidity
    00:00 0°C° 0 mm 0 mps 653 mmHg 93%
    01:00 0°C° 0 mm 0 mps 653 mmHg 93%
    02:00 0°C° 0 mm 1 mps 653 mmHg 92%
    03:00 0°C° 0 mm 1 mps 653 mmHg 92%
    04:00 0°C° 0 mm 1 mps 653 mmHg 92%
    05:00 0°C° 0 mm 1 mps 653 mmHg 92%
    06:00 +1°C° 0 mm 1 mps 654 mmHg 91%
    07:00 +2°C° 0 mm 1 mps 654 mmHg 89%
    08:00 +3°C° 0 mm 1 mps 655 mmHg 88%
    09:00 +4°C° 0 mm 1 mps 655 mmHg 84%
    10:00 +6°C° 0 mm 1 mps 656 mmHg 80%
    11:00 +7°C° 0 mm 1 mps 656 mmHg 76%
    12:00 +6°C° 0 mm 2 mps 656 mmHg 76%
    13:00 +6°C° 0 mm 2 mps 656 mmHg 76%
    14:00 +6°C° 0 mm 2 mps 656 mmHg 76%
    15:00 +6°C° 0.1 mm 2 mps 656 mmHg 77%
    16:00 +6°C° 0.1 mm 2 mps 656 mmHg 79%
    17:00 +6°C° 0.1 mm 2 mps 656 mmHg 80%
    18:00 +4°C° 0 mm 2 mps 655 mmHg 84%
    19:00 +3°C° 0 mm 2 mps 655 mmHg 87%
    20:00 +1°C° 0 mm 2 mps 655 mmHg 91%
    21:00 +1°C° 0 mm 2 mps 655 mmHg 91%
    22:00 +2°C° 0 mm 2 mps 656 mmHg 91%
    23:00 +2°C° 0 mm 2 mps 656 mmHg 91%

    5 April, Sunday

    Time Temperature Precipitation Wind Pressure Humidity
    00:00 +1°C° 0 mm 2 mps 656 mmHg 90%
    01:00 +1°C° 0 mm 2 mps 656 mmHg 89%
    02:00 +1°C° 0 mm 2 mps 656 mmHg 88%
    03:00 -1°C° 0 mm 3 mps 656 mmHg 84%
    04:00 -1°C° 0 mm 3 mps 655 mmHg 80%
    05:00 -2°C° 0 mm 3 mps 655 mmHg 76%
    06:00 -1°C° 0 mm 3 mps 656 mmHg 72%
    07:00 -1°C° 0 mm 4 mps 656 mmHg 68%
    08:00 0°C° 0 mm 4 mps 656 mmHg 64%
    09:00 0°C° 0 mm 5 mps 656 mmHg 65%
    10:00 +1°C° 0 mm 6 mps 656 mmHg 66%
    11:00 +2°C° 0 mm 7 mps 656 mmHg 67%
    12:00 +2°C° 0 mm 7 mps 656 mmHg 69%
    13:00 +1°C° 0 mm 8 mps 656 mmHg 70%
    14:00 +1°C° 0 mm 9 mps 655 mmHg 72%
    15:00 +1°C° 0 mm 9 mps 655 mmHg 72%
    16:00 0°C° 0 mm 9 mps 655 mmHg 72%
    17:00 0°C° 0 mm 10 mps 655 mmHg 73%
    18:00 -1°C° 0 mm 9 mps 655 mmHg 75%
    19:00 -1°C° 0 mm 9 mps 655 mmHg 78%
    20:00 -3°C° 0 mm 9 mps 656 mmHg 80%
    21:00 -2°C° 0 mm 8 mps 656 mmHg 80%
    22:00 -3°C° 0 mm 7 mps 656 mmHg 79%
    23:00 -3°C° 0 mm 7 mps 656 mmHg 78%

    6 April, Monday

    Time Temperature Precipitation Wind Pressure Humidity
    00:00 -3°C° 0 mm 7 mps 656 mmHg 79%
    01:00 -3°C° 0 mm 7 mps 656 mmHg 80%
    02:00 -3°C° 0 mm 7 mps 656 mmHg 80%
    03:00 -3°C° 0 mm 7 mps 656 mmHg 82%
    04:00 -4°C° 0 mm 7 mps 656 mmHg 84%
    05:00 -5°C° 0 mm 8 mps 656 mmHg 86%
    06:00 -5°C° 0 mm 8 mps 656 mmHg 84%
    07:00 -4°C° 0 mm 7 mps 656 mmHg 82%
    08:00 -4°C° 0 mm 7 mps 657 mmHg 80%
    09:00 -4°C° 0 mm 7 mps 657 mmHg 77%
    10:00 -4°C° 0 mm 8 mps 657 mmHg 74%
    11:00 -4°C° 0 mm 8 mps 658 mmHg 71%
    12:00 -2°C° 0 mm 8 mps 658 mmHg 68%
    13:00 -1°C° 0 mm 9 mps 658 mmHg 66%
    14:00 -1°C° 0 mm 9 mps 659 mmHg 63%
    15:00 -1°C° 0 mm 9 mps 658 mmHg 64%
    16:00 -2°C° 0 mm 8 mps 658 mmHg 66%
    17:00 -2°C° 0 mm 7 mps 658 mmHg 67%
    18:00 -3°C° 0.1 mm 7 mps 658 mmHg 72%
    19:00 -4°C° 0.1 mm 6 mps 658 mmHg 76%
    20:00 -5°C° 0.1 mm 5 mps 658 mmHg 80%
    21:00 -6°C° 0 mm 5 mps 658 mmHg 79%
    22:00 -6°C° 0 mm 5 mps 658 mmHg 78%
    23:00 -6°C° 0 mm 5 mps 659 mmHg 77%
    Show more